Change the Weather History Date:

Monday, March 17, 2014

  Actual Average Record
Temperature  
Mean Temperature 38 °F -  
Max Temperature 43 °F 62 °F 85 °F (2015)
Min Temperature 33 °F 38 °F 33 °F (2014)
Degree Days  
Heating Degree Days 27    
Moisture  
Dew Point 37 °F    
Average Humidity 100    
Maximum Humidity 100    
Minimum Humidity 97    
Precipitation  
Precipitation 0.00 in - - ()
Sea Level Pressure  
Sea Level Pressure 29.80 in    
Wind  
Wind Speed - (North)    
Max Wind Speed -    
Max Gust Speed -    
Visibility 7 miles    
Events Rain    
Averages and records for this station are not official NWS values.
T = Trace of Precipitation, MM = Missing Value Source: NWS Daily Summary

Daily Weather History Graph

Daily Weather History Graph

Search for Another Location

Airport or City:

Trip Planner

Search our weather history database for the weather conditions in past years. The results will help you decide how hot, cold, wet, or windy it might be!

Date:

Astronomy

Mar. 17, 2014 Rise Set
Actual Time 7:38 AM EDT 7:40 PM EDT
Civil Twilight 7:13 AM EDT 8:05 PM EDT
Nautical Twilight 6:44 AM EDT 8:34 PM EDT
Astronomical Twilight 6:14 AM EDT 9:04 PM EDT
Moon 8:51 PM EDT (3/17) 7:56 AM EDT (3/17)
Length of Visible Light 12h 51m
Length of Day
12h 01m
Full, 99% of the Moon is Illuminated
Mar 17
Full
Mar 23
Last Quarter
Mar 30
New
Apr 7
First Quarter
Apr 15
Full

Hourly Weather History & Observations

Time (EDT) Temp. Dew Point Humidity Pressure Visibility Wind Dir Wind Speed Gust Speed Precip Events Conditions
12:15 AM 43.2 °F 43.3 °F 100% 29.76 in 7.0 mi North - - N/A   Overcast
12:35 AM 43.2 °F 43.3 °F 100% 29.77 in 3.0 mi North - - N/A   Drizzle
12:55 AM 43.0 °F 43.2 °F 100% 29.77 in 4.0 mi North - - N/A   Drizzle
1:15 AM 42.8 °F 43.0 °F 100% 29.77 in 5.0 mi North - - N/A   Overcast
1:35 AM 42.6 °F 42.8 °F 100% 29.76 in 7.0 mi North - - N/A   Overcast
1:55 AM 42.3 °F 42.4 °F 100% 29.76 in 7.0 mi North - - N/A   Overcast
2:15 AM 41.9 °F 42.1 °F 100% 29.76 in 10.0 mi North - - N/A   Overcast
2:35 AM 41.9 °F 42.1 °F 100% 29.76 in 10.0 mi North - - N/A   Overcast
2:55 AM - - N/A% 29.76 in 10.0 mi North - - N/A   Drizzle
3:15 AM 41.2 °F 41.4 °F 100% 29.75 in 7.0 mi North - - N/A   Drizzle
3:35 AM 41.0 °F 41.0 °F 100% 29.75 in 5.0 mi North - - N/A   Drizzle
3:55 AM 40.8 °F 40.8 °F 100% 29.74 in 7.0 mi North - - N/A   Overcast
4:15 AM 40.3 °F 40.3 °F 100% 29.74 in 4.0 mi North - - N/A Rain Rain
4:35 AM - - N/A% 29.74 in 10.0 mi North - - N/A   Overcast
4:55 AM 39.6 °F 39.9 °F 100% 29.73 in 7.0 mi North - - N/A   Overcast
5:15 AM 39.4 °F 39.4 °F 100% 29.75 in 5.0 mi North - - N/A   Overcast
5:35 AM 39.0 °F 39.2 °F 100% 29.73 in 5.0 mi North - - N/A   Light Drizzle
5:55 AM 38.8 °F 39.0 °F 100% 29.73 in 4.0 mi North - - N/A Rain Rain
6:15 AM 38.5 °F 38.7 °F 100% 29.75 in 4.0 mi North - - N/A   Light Drizzle
6:35 AM 38.3 °F 38.5 °F 100% 29.75 in 3.0 mi North - - N/A   Overcast
6:55 AM 37.9 °F 38.1 °F 100% 29.75 in 3.0 mi North - - N/A   Overcast
7:15 AM 37.4 °F 37.6 °F 100% 29.76 in 3.0 mi North - - N/A   Drizzle
7:35 AM 37.4 °F 37.4 °F 100% 29.75 in 4.0 mi North - - N/A   Light Drizzle
7:55 AM 36.9 °F 36.9 °F 100% 29.76 in 5.0 mi North - - N/A   Overcast
8:15 AM 36.5 °F 36.7 °F 100% 29.76 in 5.0 mi North - - N/A   Overcast
8:35 AM 36.3 °F 36.3 °F 100% 29.76 in 2.5 mi North - - N/A   Overcast
8:55 AM 36.0 °F 36.1 °F 100% 29.78 in 4.0 mi North - - N/A   Overcast
9:15 AM 36.0 °F 36.1 °F 100% 29.81 in 2.5 mi North - - N/A   Overcast
9:35 AM 35.8 °F 36.0 °F 100% 29.80 in 2.0 mi North - - N/A   Overcast
9:55 AM 35.6 °F 35.8 °F 100% 29.81 in 3.0 mi North - - N/A   Overcast
10:15 AM 35.6 °F 35.6 °F 100% 29.82 in 2.0 mi North - - N/A   Drizzle
10:35 AM 35.6 °F 35.8 °F 100% 29.85 in 1.2 mi North - - N/A Rain Light Rain
10:55 AM 35.6 °F 35.6 °F 100% 29.82 in 1.5 mi North - - N/A Rain Light Rain
11:15 AM 35.8 °F 35.8 °F 100% 29.83 in 10.0 mi North - - N/A Rain Light Rain
11:35 AM 36.1 °F 36.1 °F 100% 29.82 in 10.0 mi North - - N/A   Light Drizzle
11:55 AM 36.5 °F 36.5 °F 100% 29.82 in 10.0 mi North - - N/A Rain Rain
12:15 PM 36.5 °F 36.3 °F 99% 29.83 in 10.0 mi North - - N/A   Overcast
12:35 PM 36.5 °F 36.7 °F 100% 29.82 in 10.0 mi North - - N/A   Overcast
12:55 PM 36.7 °F 36.7 °F 100% 29.84 in 10.0 mi North - - N/A   Overcast
1:15 PM 36.7 °F 36.5 °F 99% 29.84 in 10.0 mi North - - N/A   Overcast
1:35 PM 36.7 °F 36.5 °F 99% 29.84 in 10.0 mi North - - N/A Rain Light Rain
1:55 PM 36.5 °F 36.5 °F 100% 29.84 in 7.0 mi North - - N/A Rain Light Rain
2:15 PM 36.7 °F 36.9 °F 100% 29.83 in 10.0 mi North - - N/A Rain Light Rain
2:35 PM 36.7 °F 36.7 °F 100% 29.81 in 5.0 mi North - - N/A Rain Light Rain
2:55 PM 36.7 °F 36.9 °F 100% 29.82 in 7.0 mi North - - N/A Rain Light Rain
3:15 PM 37.0 °F 37.2 °F 100% 29.81 in 10.0 mi North - - N/A   Light Drizzle
3:35 PM 37.0 °F 37.2 °F 100% 29.79 in 10.0 mi North - - N/A Rain Light Rain
3:55 PM 37.2 °F 37.4 °F 100% 29.78 in 10.0 mi North - - N/A   Light Drizzle
4:15 PM 37.2 °F 37.2 °F 100% 29.78 in 10.0 mi North - - N/A   Drizzle
4:35 PM 37.0 °F 37.0 °F 100% 29.78 in 10.0 mi North - - N/A   Drizzle
4:55 PM 36.9 °F 36.7 °F 99% 29.80 in 10.0 mi North - - N/A   Light Drizzle
5:15 PM 36.7 °F 36.3 °F 99% 29.80 in 7.0 mi North - - N/A Rain Light Rain
5:35 PM 36.5 °F 36.7 °F 100% 29.79 in 7.0 mi North - - N/A Rain Light Rain
5:55 PM 36.7 °F 36.9 °F 100% 29.80 in 10.0 mi North - - N/A   Light Drizzle
6:15 PM 36.5 °F 36.7 °F 100% 29.80 in 10.0 mi North - - N/A   Light Drizzle
6:35 PM 36.5 °F 36.5 °F 100% 29.81 in 10.0 mi North - - N/A   Light Drizzle
6:55 PM 36.3 °F 36.3 °F 100% 29.81 in 10.0 mi North - - N/A Rain Rain
7:15 PM 36.0 °F 36.0 °F 100% 29.82 in 10.0 mi North - - N/A Rain Light Rain
7:35 PM 35.8 °F 36.0 °F 100% 29.82 in 10.0 mi North - - N/A   Drizzle
7:55 PM 35.4 °F 35.6 °F 100% 29.84 in 10.0 mi North - - N/A Rain Light Rain
8:15 PM 35.2 °F 35.6 °F 100% 29.84 in 10.0 mi North - - N/A Rain Light Rain
8:35 PM 34.9 °F 35.1 °F 100% 29.87 in 10.0 mi North - - N/A   Light Drizzle
8:55 PM 34.7 °F 34.9 °F 100% 29.87 in 10.0 mi North - - N/A Rain Light Rain
9:15 PM - - N/A% 29.87 in 10.0 mi North - - N/A Rain Light Rain
9:35 PM 34.2 °F 34.3 °F 100% 29.88 in 10.0 mi North - - N/A   Light Drizzle
9:55 PM 34.0 °F 34.2 °F 100% 29.86 in 10.0 mi North - - N/A   Overcast
10:15 PM 33.8 °F 34.0 °F 100% 29.89 in 10.0 mi North - - N/A   Overcast
10:35 PM 34.0 °F 34.2 °F 100% 29.90 in 10.0 mi North - - N/A   Overcast
10:55 PM 34.0 °F 34.0 °F 100% 29.91 in 10.0 mi North - - N/A   Overcast
11:15 PM 33.8 °F 33.4 °F 99% 29.90 in 10.0 mi North - - N/A   Overcast
11:35 PM 33.8 °F 33.1 °F 97% 29.92 in 10.0 mi North - - N/A   Overcast
11:55 PM 33.8 °F 33.1 °F 97% 29.92 in 10.0 mi North - - N/A   Overcast